Starlink 4786

operational
NORAD ID: 55393 Int'l Des: 2023-014 Owner: SPXS Country: US Constellation: starlink
LEOCIRCULAR

关于 Starlink 4786

正在加载描述...

实时位置

正在加载3D地球...

即将过境

高度历史

Altitude vs Time

uPlot chart will show altitude changes over time

两行轨道根数

1 55393U 23014C 25347.53877198 -.00001597 00000-0 -12610-3 0 9991
2 55393 70.0009 281.5709 0002830 272.5545 87.5290 14.98333203159156
Epoch: Dec 13, 2025 • Age: 23 hours

当前状态

高度 575.5 km
速度 7.57 km/s
星下点 -7.26°S, 164.6°W
发射日期 Jan 31, 2023
运行时间 2.8 years
类型 internet

技术详情

分类 Payload
质量 305.00 kg
干质量 290.00 kg
总质量 305.00 kg
长度 0.20 m
直径 2.80 m
跨度 9.00 m
形状 Box + pan
制造商 SPXS
平台类型 Starlink
阶段状态 In Orbit
所有者/国家 SPXS/US

大型星座

Loading constellations...